User: anonymous   Login
Location: San Bernardino
(34.1083°N, 117.2898°W)
Time: 16:46:05
(UTC+00:00)
Language:

ARGOS - Orbit

View from above orbital plane
View from above orbital plane
View from above satellite
View from above satellite

Ground track
Ground track

The orbit data is extracted from the following two-line orbital elements,

1 25634U 99008A   24174.56464009  .00000101  00000-0  67066-4 0  9999
2 25634  98.4184 161.1196 0009907 349.1138  10.9823 14.19675290311962
Epoch (UTC): 22 June 2024 13:33:04
Eccentricity: 0.0009907
inclination: 98.4184°
perigee height: 819 km
apogee height: 833 km
right ascension of ascending node: 161.1196°
argument of perigee: 349.1138°
revolutions per day: 14.19675290
mean anomaly at epoch: 10.9823°
orbit number at epoch: 31196

The dashed part of the orbit path shows where the satellite is in the earth's shadow,  

DLR